Flag for U.S.A. Weather past 2 weeks in Leawood, Kansas, U.S.A.

Now
73 °F

Scattered clouds.


Feels Like: 76 °F
Forecast: 64 / 74 °F
Wind: 13 mph from Northeast

Location: Johnson County Executive Airport

Current Time: Jul 7, 2015 at 3:28:38 PM

Latest Report: Jul 7, 2015 at 2:53 PM


Visibility: 5 mi

Pressure: 30.01 "Hg

Humidity: 62%

Dew point: 59 °F

Location of LeawoodLocation

Historic Weather in Leawood — Graph

°F

Leawood temperature yesterday

Maximum temperature yesterday: 86 °F (at 1:53 PM)
Minimum temperature yesterday: 70 °F (at 6:00 PM)
Average temperature yesterday: 76 °F

Past Weeks' High & Low Weather Summary

 TemperatureHumidityPressure
High95 °F (Jun 25, 3:53 PM)100% (Jun 26, 2:53 AM)30.18 "Hg (Jun 26, 2:53 AM)
Low60 °F (Jul 7, 4:53 AM)37% (Jun 28, 4:53 PM)29.74 "Hg (Jul 1, 8:53 PM)
Average75 °F73%29.92 "Hg
* Reported Jun 22 1:53 PM — Jul 7 1:53 PM, Leawood, Weather by CustomWeather, © 2015

Note: Actual official high and low records may vary slightly from our data, if they occured in-between our weather recording intervals... More about our weather records

Advertising

Leawood weather history for previous 24 hours

 ConditionsComfort  
Time TempWeatherWind HumidityBarometerVisibility
1:53 PM
Tue, Jul 7
72 °FPartly sunny.12 mph64%30.02 "Hg5 mi
12:53 PM70 °FPartly sunny.14 mph66%30.03 "Hg5 mi
11:53 AM67 °FBroken clouds.15 mph73%30.04 "Hg4 mi
10:53 AM65 °FOvercast.14 mph81%30.03 "Hg3 mi
10:00 AM65 °FFog.12 mph87%30.06 "Hg2 mi
8:53 AM63 °FFog.6 mph93%30.02 "Hg1 mi
7:53 AM61 °FFog.10 mph93%30.01 "Hg2 mi
6:53 AM61 °FFog.16 mph93%29.99 "Hg2 mi
5:53 AM61 °FFog.10 mph93%29.99 "Hg3 mi
4:53 AM60 °FLight rain. Fog.20 mph93%29.96 "Hg4 mi
3:53 AM63 °FLight rain. Fog.14 mph100%29.94 "Hg4 mi
3:00 AM64 °FLight rain. Fog.22 mph97%29.96 "Hg6 mi
1:53 AM68 °FRain. Fog.16 mph100%29.91 "Hg4 mi
12:59 AM71 °FRain. Fog.5 mph100%29.95 "Hg2 mi
11:53 PM
Mon, Jul 6
71 °FMostly cloudy.3 mph96%29.91 "Hg10 mi
10:53 PM70 °FMostly cloudy.8 mph100%29.89 "Hg10 mi
9:53 PM70 °FPassing clouds.6 mph100%29.86 "Hg10 mi
8:53 PM71 °FLight rain. Broken clouds.7 mph96%29.86 "Hg10 mi
7:53 PM71 °FRain. Fog.No wind96%29.84 "Hg3 mi
6:53 PM71 °FRain. Fog.6 mph96%29.84 "Hg4 mi
6:00 PM70 °FStrong thunderstorms. Fog.8 mph97%29.87 "Hg1 mi
4:53 PM83 °FThunderstorms. Sunny.13 mph74%29.79 "Hg10 mi
3:53 PM85 °FPartly sunny.20 mph72%29.77 "Hg10 mi
Weather by CustomWeather, © 2015

See weather overviewHow to use our weather pages